Casa Grande, AZ

6:13 PM MST on April 25, 2018 (GMT -0700)
Casa Grande Municipal

Weather History for KCGZ - October, 2014

Change the Weather History Date:

Tuesday, October 21, 2014

  Actual Average Record
Temperature  
Mean Temperature 74 °F -  
Max Temperature 86 °F 81 °F 100 °F (2003)
Min Temperature 62 °F 53 °F 46 °F (1996)
Cooling Degree Days 9    
Growing Degree Days 24 (Base 50)    
Moisture  
Dew Point 49 °F    
Average Humidity 41    
Maximum Humidity 59    
Minimum Humidity 27    
Precipitation  
Precipitation 0.00 in - - ()
Sea Level Pressure  
Sea Level Pressure 29.87 in    
Wind  
Wind Speed 1 mph (East)    
Max Wind Speed 6 mph    
Max Gust Speed -    
Visibility 10 miles    
Events      
Averages and records for this station are not official NWS values.
T = Trace of Precipitation, MM = Missing Value Source: NWS Daily Summary

Daily Weather History Graph

Daily Weather History Graph

Search for Another Location

Airport or City:

Astronomy

Oct. 21, 2014 Rise Set
Actual Time 6:35 AM MST 5:46 PM MST
Civil Twilight 6:10 AM MST 6:11 PM MST
Nautical Twilight 5:42 AM MST 6:40 PM MST
Astronomical Twilight 5:13 AM MST 7:09 PM MST
Moon 4:30 AM MST (10/21) 4:37 PM MST (10/21)
Length of Visible Light 12h 01m
Length of Day
11h 10m
Waning Crescent, 4% of the Moon is Illuminated
Oct 21
Waning Crescent
Oct 23
New
Oct 30
First Quarter
Nov 6
Full
Nov 14
Last Quarter

Hourly Weather History & Observations

Time (MST) Temp. Dew Point Humidity Pressure Visibility Wind Dir Wind Speed Gust Speed Precip Events Conditions
12:15 AM 71.6 °F 48.2 °F 43% 29.87 in 10.0 mi ENE 4.6 mph - N/A   Clear
12:35 AM 73.4 °F 48.2 °F 41% 29.87 in 10.0 mi ENE 4.6 mph - N/A   Clear
12:55 AM 71.6 °F 48.2 °F 43% 29.88 in 10.0 mi East 5.8 mph - N/A   Clear
1:15 AM 71.6 °F 48.2 °F 43% 29.88 in 10.0 mi East 5.8 mph - N/A   Clear
1:35 AM 71.6 °F 48.2 °F 43% 29.87 in 10.0 mi Calm Calm - N/A   Clear
1:55 AM 71.6 °F 48.2 °F 43% 29.88 in 10.0 mi Calm Calm - N/A   Clear
2:15 AM 69.8 °F 48.2 °F 46% 29.88 in 10.0 mi Calm Calm - N/A   Clear
2:35 AM 68.0 °F 48.2 °F 49% 29.88 in 10.0 mi Calm Calm - N/A   Clear
2:55 AM 66.2 °F 48.2 °F 52% 29.87 in 10.0 mi Calm Calm - N/A   Clear
3:15 AM 68.0 °F 50.0 °F 52% 29.87 in 10.0 mi Calm Calm - N/A   Clear
3:35 AM 68.0 °F 48.2 °F 49% 29.86 in 10.0 mi East 3.5 mph - N/A   Clear
3:55 AM 66.2 °F 48.2 °F 52% 29.87 in 10.0 mi Calm Calm - N/A   Clear
4:15 AM 66.2 °F 48.2 °F 52% 29.87 in 10.0 mi Calm Calm - N/A   Clear
4:35 AM 66.2 °F 48.2 °F 52% 29.87 in 10.0 mi Calm Calm - N/A   Clear
4:55 AM 66.2 °F 48.2 °F 52% 29.87 in 10.0 mi Calm Calm - N/A   Clear
5:15 AM 66.2 °F 50.0 °F 56% 29.87 in 10.0 mi Calm Calm - N/A   Clear
5:35 AM 64.4 °F 48.2 °F 56% 29.88 in 10.0 mi Calm Calm - N/A   Clear
5:55 AM 64.4 °F 48.2 °F 56% 29.88 in 10.0 mi Calm Calm - N/A   Clear
6:15 AM 64.4 °F 48.2 °F 56% 29.88 in 10.0 mi Calm Calm - N/A   Clear
6:35 AM 62.6 °F 48.2 °F 59% 29.89 in 10.0 mi Calm Calm - N/A   Clear
6:55 AM 62.6 °F 48.2 °F 59% 29.89 in 10.0 mi Calm Calm - N/A   Clear
7:15 AM 66.2 °F 50.0 °F 56% 29.90 in 10.0 mi Calm Calm - N/A   Clear
7:35 AM 68.0 °F 51.8 °F 56% 29.91 in 10.0 mi Calm Calm - N/A   Clear
7:55 AM 69.8 °F 51.8 °F 53% 29.91 in 10.0 mi Calm Calm - N/A   Clear
8:15 AM 71.6 °F 51.8 °F 50% 29.92 in 10.0 mi Calm Calm - N/A   Clear
8:35 AM 73.4 °F 51.8 °F 47% 29.92 in 10.0 mi Calm Calm - N/A   Clear
8:55 AM 73.4 °F 51.8 °F 47% 29.92 in 10.0 mi Calm Calm - N/A   Clear
9:15 AM 75.2 °F 51.8 °F 44% 29.93 in 10.0 mi Calm Calm - N/A   Clear
9:35 AM 75.2 °F 51.8 °F 44% 29.93 in 10.0 mi Calm Calm - N/A   Clear
9:55 AM 77.0 °F 51.8 °F 41% 29.93 in 10.0 mi Calm Calm - N/A   Clear
10:15 AM 78.8 °F 51.8 °F 39% 29.92 in 10.0 mi Calm Calm - N/A   Clear
10:35 AM 78.8 °F 51.8 °F 39% 29.92 in 10.0 mi Calm Calm - N/A   Clear
10:55 AM 80.6 °F 50.0 °F 34% 29.92 in 10.0 mi Calm Calm - N/A   Clear
11:15 AM 80.6 °F 51.8 °F 37% 29.92 in 10.0 mi Calm Calm - N/A   Clear
11:35 AM 82.4 °F 51.8 °F 35% 29.91 in 10.0 mi Calm Calm - N/A   Clear
11:55 AM 82.4 °F 50.0 °F 32% 29.89 in 10.0 mi East 3.5 mph - N/A   Clear
12:15 PM 82.4 °F 51.8 °F 35% 29.88 in 10.0 mi Calm Calm - N/A   Clear
12:35 PM 82.4 °F 50.0 °F 32% 29.87 in 10.0 mi Calm Calm - N/A   Clear
12:55 PM 84.2 °F 48.2 °F 29% 29.86 in 10.0 mi Calm Calm - N/A   Clear
1:15 PM 84.2 °F 48.2 °F 29% 29.85 in 10.0 mi Calm Calm - N/A   Clear
1:35 PM 84.2 °F 48.2 °F 29% 29.84 in 10.0 mi Calm Calm - N/A   Clear
1:55 PM 84.2 °F 48.2 °F 29% 29.84 in 10.0 mi Calm Calm - N/A   Clear
2:15 PM 84.2 °F 48.2 °F 29% 29.83 in 10.0 mi Calm Calm - N/A   Clear
2:35 PM 84.2 °F 48.2 °F 29% 29.83 in 10.0 mi Calm Calm - N/A   Clear
2:55 PM 84.2 °F 48.2 °F 29% 29.82 in 10.0 mi Calm Calm - N/A   Clear
3:15 PM 86.0 °F 48.2 °F 27% 29.82 in 10.0 mi Calm Calm - N/A   Clear
3:35 PM 86.0 °F 48.2 °F 27% 29.82 in 10.0 mi Calm Calm - N/A   Clear
3:55 PM 84.2 °F 48.2 °F 29% 29.82 in 10.0 mi Calm Calm - N/A   Clear
4:15 PM 84.2 °F 48.2 °F 29% 29.82 in 10.0 mi WSW 4.6 mph - N/A   Clear
4:35 PM 86.0 °F 48.2 °F 27% 29.81 in 10.0 mi WSW 4.6 mph - N/A   Clear
4:55 PM 84.2 °F 48.2 °F 29% 29.82 in 10.0 mi West 4.6 mph - N/A   Clear
5:15 PM 84.2 °F 48.2 °F 29% 29.81 in 10.0 mi Calm Calm - N/A   Clear
5:35 PM 84.2 °F 48.2 °F 29% 29.81 in 10.0 mi Calm Calm - N/A   Clear
5:55 PM 82.4 °F 48.2 °F 30% 29.82 in 10.0 mi Calm Calm - N/A   Clear
6:15 PM 80.6 °F 48.2 °F 32% 29.82 in 10.0 mi Calm Calm - N/A   Clear
6:35 PM 78.8 °F 48.2 °F 34% 29.83 in 10.0 mi Calm Calm - N/A   Clear
6:55 PM 77.0 °F 48.2 °F 36% 29.83 in 10.0 mi Calm Calm - N/A   Clear
7:15 PM 75.2 °F 48.2 °F 38% 29.83 in 10.0 mi Calm Calm - N/A   Clear
7:35 PM 75.2 °F 48.2 °F 38% 29.84 in 10.0 mi Calm Calm - N/A   Clear
7:55 PM 73.4 °F 48.2 °F 41% 29.84 in 10.0 mi Calm Calm - N/A   Clear
8:15 PM 73.4 °F 48.2 °F 41% 29.84 in 10.0 mi Calm Calm - N/A   Clear
8:35 PM 73.4 °F 46.4 °F 38% 29.84 in 10.0 mi Calm Calm - N/A   Clear
8:55 PM 71.6 °F 48.2 °F 43% 29.85 in 10.0 mi Calm Calm - N/A   Clear
9:15 PM 71.6 °F 48.2 °F 43% 29.86 in 10.0 mi Calm Calm - N/A   Clear
9:35 PM 71.6 °F 48.2 °F 43% 29.86 in 10.0 mi Calm Calm - N/A   Clear
9:55 PM 71.6 °F 48.2 °F 43% 29.86 in 10.0 mi Calm Calm - N/A   Clear
10:15 PM 71.6 °F 48.2 °F 43% 29.87 in 10.0 mi Calm Calm - N/A   Clear
10:35 PM 71.6 °F 46.4 °F 41% 29.87 in 10.0 mi Calm Calm - N/A   Clear
10:55 PM 69.8 °F 48.2 °F 46% 29.87 in 10.0 mi Calm Calm - N/A   Clear
11:15 PM 69.8 °F 48.2 °F 46% 29.87 in 10.0 mi Calm Calm - N/A   Clear
11:35 PM 66.2 °F 46.4 °F 49% 29.87 in 10.0 mi Calm Calm - N/A   Clear
11:55 PM 66.2 °F 46.4 °F 49% 29.87 in 10.0 mi Calm Calm - N/A   Clear